Wind_Speed
15 16 17 17 17 18 19 16 16 19 22 24 25 28 28 29 30 31 33 34 35 35 35 34 31 27 21 13 8 9 12 13 13 13 14 15 16 16 18 19 19 20 20 20 18 16 14 14 16 15 13 12 11 10 7 6 5 3 3 4 3 4 5 6 8 8 8 8 7 6 6 7 7 7 7 6 5 4 3 3 3 4 6 7 8
15 15 15 15 15 15 16 14 13 14 16 19 20 23 26 26 29 31 32 31 31 32 33 35 35 33 30 25 18 11 8 10 13 15 15 15 16 17 18 20 21 22 22 20 19 17 17 18 19 19 17 15 15 14 12 9 7 5 4 4 3 3 4 6 7 9 10 10 10 8 7 7 7 8 8 7 6 5 4 3 3 3 4 5 6
17 17 17 17 15 14 15 14 12 11 10 12 14 17 21 24 27 29 31 32 31 30 30 31 33 34 34 33 29 24 16 10 9 12 16 18 18 18 18 20 21 22 23 22 21 20 19 19 21 22 20 18 17 16 16 14 11 8 7 5 4 4 4 4 6 8 10 11 12 11 10 8 8 8 9 9 8 7 6 4 3 3 3 4 4
18 18 19 19 17 15 15 14 11 10 9 10 10 12 17 24 26 26 26 29 30 30 29 29 30 31 32 33 33 33 29 23 15 9 10 14 18 20 21 21 21 22 23 23 23 23 22 21 22 23 22 21 18 17 17 18 16 13 11 8 6 6 6 6 6 7 9 12 13 14 13 12 10 9 9 10 10 9 8 7 6 4 3 4 4
19 18 19 20 19 16 15 14 12 10 10 11 11 12 15 22 27 27 24 25 28 28 28 29 29 29 30 31 32 33 33 32 28 22 14 9 10 15 19 22 24 24 24 24 25 25 25 24 24 25 24 22 19 17 16 17 18 17 16 13 9 8 8 7 8 8 8 10 13 15 15 14 13 12 11 11 11 11 11 9 8 6 5 5 4
18 18 18 19 20 19 16 14 14 12 10 12 12 13 16 20 26 27 22 22 25 26 27 28 28 29 29 29 30 30 31 32 32 30 26 19 12 8 10 15 20 22 24 26 26 27 27 27 27 27 27 25 21 18 16 14 15 17 18 16 14 13 11 9 10 11 9 9 11 14 16 16 15 14 13 12 11 12 12 12 10 9 7 6 5
19 19 19 19 19 20 18 15 14 14 12 13 14 15 17 20 24 22 19 20 23 25 27 27 28 28 28 29 29 29 29 30 30 31 30 27 22 16 11 8 9 14 18 23 27 29 29 30 30 29 29 28 24 20 17 14 13 15 19 22 21 18 15 14 14 13 12 12 10 11 15 16 16 16 15 14 13 12 12 13 12 11 9 8 7
19 20 19 19 18 18 18 16 15 15 14 15 15 16 17 18 19 17 16 19 21 24 25 26 27 28 28 28 28 29 29 29 29 30 30 29 27 24 19 15 10 7 8 13 20 26 30 31 32 32 31 30 27 23 18 15 15 18 24 28 27 23 20 19 19 17 16 17 15 11 12 15 16 16 17 16 15 14 13 13 14 13 11 10 9
19 20 20 19 17 16 17 16 15 15 15 15 15 15 15 15 15 14 15 18 20 23 24 25 26 26 27 28 28 29 29 28 29 29 29 29 29 28 25 21 17 14 10 7 9 15 25 32 34 33 33 32 29 25 20 19 24 28 27 28 28 27 25 23 22 21 20 21 21 16 13 14 17 18 18 18 17 16 15 15 15 15 14 12 11
19 19 20 20 18 15 14 13 13 13 14 15 16 16 15 15 14 14 15 18 22 24 24 24 25 25 26 26 27 28 28 28 28 28 29 29 29 29 28 25 21 18 16 12 8 6 12 23 34 36 34 34 31 28 25 26 30 31 27 27 29 29 28 26 25 25 24 23 24 23 19 17 17 18 19 19 19 19 18 17 16 16 16 15 13
20 20 20 21 20 18 15 12 10 10 11 12 14 15 16 16 15 15 16 19 23 25 25 25 25 25 26 26 26 27 27 28 28 28 28 29 29 29 29 28 26 22 18 16 13 9 8 10 23 35 37 35 34 31 30 32 33 31 27 27 29 29 29 29 28 27 27 26 25 26 25 22 20 19 20 20 21 21 21 20 18 17 17 17 15
20 21 21 22 22 21 19 16 13 12 12 13 14 15 16 17 17 17 18 20 24 26 26 27 27 26 26 27 27 27 28 28 29 29 28 28 29 29 28 28 29 27 21 17 17 14 11 11 10 23 36 37 34 34 34 34 35 33 30 29 30 30 29 30 30 30 30 29 28 28 28 26 23 21 21 22 23 23 23 22 21 20 19 18 18
21 21 21 22 22 22 21 19 17 16 16 16 16 18 19 19 19 20 20 22 25 27 27 28 28 28 27 28 28 28 29 29 30 30 29 29 28 29 29 28 28 29 26 19 17 19 16 15 18 11 22 36 36 34 34 35 35 35 34 33 33 33 32 31 31 32 33 32 31 30 30 29 27 25 24 24 25 25 25 25 24 22 21 20 20
21 21 21 21 22 22 22 21 19 17 17 16 16 18 21 22 22 22 22 22 25 28 28 29 29 29 29 29 29 29 30 30 30 31 31 30 29 28 29 28 28 29 29 24 18 18 21 19 21 22 8 20 34 37 35 35 35 35 36 36 36 36 36 35 32 32 33 34 34 33 32 31 30 30 28 28 27 27 27 27 26 25 24 23 22
21 21 21 21 22 22 23 22 20 18 17 17 18 20 22 23 24 24 24 23 26 28 29 30 30 31 31 31 31 31 31 30 30 30 31 30 29 29 28 28 28 28 29 28 22 18 20 22 22 23 22 9 13 28 35 37 36 34 35 37 38 38 40 41 38 35 34 35 36 37 36 34 33 33 33 32 31 29 29 29 28 27 26 25 24
22 22 22 22 22 23 23 23 22 20 19 20 21 23 24 25 25 25 25 24 26 29 30 31 32 32 32 32 32 32 31 31 31 30 30 30 29 29 29 28 27 27 28 29 27 23 20 21 23 24 24 22 12 5 16 26 33 35 36 38 39 39 41 45 45 43 39 36 36 38 38 36 35 35 35 36 35 32 30 31 31 30 29 28 28
24 23 24 24 24 24 24 25 24 22 21 22 23 24 25 26 26 27 27 27 29 31 32 33 33 34 33 33 33 32 32 32 32 31 30 30 30 29 29 28 26 26 27 28 29 28 26 24 25 26 26 25 20 14 8 9 16 24 31 37 40 42 43 45 48 49 47 43 39 38 38 38 37 37 36 38 38 36 33 33 33 33 32 31 30
24 24 25 25 25 24 24 25 25 24 22 22 24 25 26 26 27 27 29 30 32 33 34 35 35 35 35 34 33 33 33 32 33 33 32 31 31 30 30 28 26 25 25 26 28 30 31 30 30 30 30 29 27 22 17 14 13 14 18 24 31 37 43 47 50 51 52 51 47 43 41 39 39 40 39 39 39 39 38 35 34 34 32 30 31
25 25 25 25 25 25 25 25 26 26 24 23 24 25 26 26 26 27 28 31 32 34 35 37 37 37 36 36 35 34 34 34 34 34 33 32 32 32 31 29 26 25 25 25 27 29 30 32 34 34 33 33 33 32 30 28 26 25 23 21 23 27 34 43 50 53 54 55 53 50 47 44 42 42 42 42 40 40 40 39 36 34 33 32 32
25 25 25 26 26 26 26 27 27 27 26 25 25 26 27 27 27 28 29 31 33 35 36 37 38 38 37 37 36 35 35 35 35 35 33 33 33 33 32 31 28 25 24 25 25 27 28 30 33 35 35 34 34 34 37 41 43 43 40 34 30 29 30 34 43 52 55 56 56 56 54 51 49 46 44 44 43 42 42 42 40 37 35 34 33
26 27 27 27 27 27 28 29 30 30 30 29 27 27 28 29 29 30 32 34 36 37 38 39 39 39 38 38 37 37 36 36 36 35 34 34 34 34 33 32 29 27 25 26 27 28 28 28 30 33 36 36 36 35 37 44 50 52 51 47 41 37 34 32 35 44 53 57 58 58 59 57 56 53 50 48 46 45 45 45 44 42 39 37 35
28 28 29 29 29 29 30 31 32 32 33 33 31 30 30 31 32 33 35 36 38 39 40 40 41 40 39 39 38 38 37 37 37 36 36 36 35 35 34 32 31 29 28 28 29 30 30 29 30 32 35 37 37 37 40 46 52 54 55 52 47 41 37 34 32 37 45 53 58 59 61 61 61 59 57 54 51 49 48 48 48 46 44 41 39
29 30 31 31 32 32 32 33 34 35 35 35 35 34 33 33 33 34 35 37 39 41 41 42 42 42 41 40 39 39 39 39 38 37 38 38 38 37 36 33 32 32 33 33 34 35 34 32 33 34 36 38 39 41 45 50 52 53 53 51 47 42 38 34 32 34 40 47 54 59 62 64 65 64 62 60 57 54 52 50 50 50 48 46 44
31 32 33 34 34 35 35 35 36 36 37 37 37 36 36 35 35 35 36 37 40 42 43 44 43 43 42 41 40 40 40 40 40 39 39 40 40 39 37 35 33 35 38 38 39 39 38 37 37 39 40 41 43 46 50 52 53 52 50 48 45 41 37 34 32 34 38 43 49 56 61 65 67 68 67 65 62 60 58 55 53 52 51 50 48
33 34 35 36 37 37 38 38 38 38 38 38 38 38 38 37 37 37 38 39 41 43 44 45 44 44 43 43 41 41 41 42 41 41 41 42 42 41 38 36 35 37 40 42 43 42 41 41 42 44 45 46 48 51 52 52 51 50 48 45 43 39 35 33 33 34 37 41 46 52 58 64 68 70 71 70 67 65 64 62 57 54 53 53 52
35 36 37 38 39 40 40 40 40 40 40 40 39 38 38 37 38 40 42 44 44 44 44 45 45 44 44 44 43 43 43 43 42 43 45 45 44 42 40 38 37 40 44 46 46 44 42 44 46 48 50 51 51 52 52 50 47 47 46 43 42 40 36 34 34 36 38 41 45 49 54 60 66 70 73 74 72 70 69 68 65 60 56 55 55
37 38 39 41 42 42 43 43 43 42 42 41 39 37 36 36 38 41 44 47 48 47 46 45 45 45 46 46 46 46 46 45 44 46 48 47 46 44 41 39 40 44 49 50 49 47 47 48 49 51 52 52 51 49 49 48 45 43 43 42 41 41 39 37 36 38 40 43 46 50 53 57 63 69 74 76 77 75 73 73 72 68 62 58 57
39 40 42 43 44 45 45 45 44 44 43 41 38 37 35 36 39 42 45 49 51 50 49 48 47 47 47 47 47 49 49 49 48 49 49 48 46 43 42 43 46 50 53 54 54 54 54 53 52 51 50 50 50 47 46 45 43 41 41 41 42 43 43 42 41 42 43 45 47 51 54 57 61 67 73 78 80 80 78 77 77 76 71 65 60
42 43 44 45 46 46 46 45 44 44 42 40 38 37 35 37 40 43 47 50 50 50 51 50 49 48 48 48 49 51 51 51 51 50 49 47 45 44 46 49 52 56 59 62 63 61 59 58 56 52 50 49 48 46 43 40 38 38 40 42 44 46 47 49 49 49 49 49 50 52 55 59 62 65 71 78 83 84 82 81 81 81 78 72 66
44 45 47 47 47 47 46 45 43 42 40 39 38 38 37 39 41 45 48 49 48 49 51 51 50 49 50 50 51 52 53 52 52 51 49 48 48 50 53 55 58 63 67 69 70 68 63 60 58 54 49 47 46 45 41 37 37 40 43 46 48 49 50 53 55 56 57 56 55 55 57 61 64 66 70 76 83 87 87 85 83 83 83 78 72
47 48 49 49 49 48 47 45 43 41 40 40 40 39 40 41 43 46 48 48 47 50 51 51 51 51 52 52 52 53 53 52 50 51 51 52 53 55 58 62 66 69 71 72 73 72 67 62 59 55 50 46 44 42 39 41 44 47 48 49 51 53 55 57 59 60 61 60 59 58 58 61 65 68 71 74 81 87 90 89 87 86 85 83 78
49 50 50 50 50 48 46 45 43 41 41 42 41 40 41 43 45 47 47 47 49 51 52 52 52 53 54 53 53 54 53 51 50 51 53 54 58 62 67 70 72 73 74 74 73 71 67 63 59 55 51 47 44 42 44 49 53 54 54 54 55 58 62 64 63 62 62 61 60 57 57 59 63 68 72 74 79 85 91 93 91 89 88 87 83
50 51 51 51 50 48 47 45 44 43 44 44 43 42 43 46 47 47 47 49 51 53 53 53 53 55 56 56 55 55 54 53 52 52 55 59 65 70 72 73 74 76 76 74 70 67 65 61 57 53 50 48 47 48 52 55 59 61 62 62 63 66 68 69 66 64 62 59 56 54 53 55 59 65 71 75 78 83 89 94 95 93 91 90 88
53 52 52 51 50 48 46 45 45 45 45 44 44 46 48 50 49 49 49 50 52 54 54 54 55 57 58 59 58 57 56 55 56 58 63 67 71 73 74 76 78 78 76 72 68 64 61 57 53 51 50 51 53 56 59 61 64 66 67 68 71 73 73 71 68 64 60 56 52 50 49 51 55 61 68 74 78 81 86 92 97 98 95 93 92
55 54 53 52 50 48 45 45 46 46 45 45 47 50 52 52 51 50 50 52 53 55 55 56 57 58 60 61 61 61 61 62 64 67 71 73 74 76 78 80 81 80 76 72 66 61 57 54 53 53 53 54 57 61 63 65 67 68 70 73 76 77 76 72 68 63 59 54 51 49 48 48 52 57 65 72 77 81 84 89 96 100 100 97 95
57 55 54 52 50 48 47 46 47 47 46 47 49 52 53 53 52 52 53 54 56 57 57 57 58 60 62 63 65 66 67 69 72 73 75 76 78 80 83 85 83 80 75 69 62 57 54 55 56 56 55 56 59 63 67 69 70 71 74 77 79 78 76 72 67 62 59 56 53 51 51 50 51 55 61 68 75 80 83 86 92 98 103 102 100
58 56 55 53 51 49 48 47 47 47 47 48 50 53 54 54 55 56 57 57 59 60 60 60 61 61 62 65 67 69 72 74 75 77 78 80 82 85 87 86 82 77 71 64 58 56 57 59 59 56 56 59 63 67 70 72 74 76 78 79 79 77 75 70 66 62 61 58 56 54 53 52 52 54 59 66 73 78 81 83 87 94 101 105 104
59 58 56 54 52 50 49 48 48 48 49 50 51 53 55 56 57 58 59 59 60 61 62 63 63 63 63 65 68 70 73 75 77 79 81 83 86 88 87 83 78 72 64 58 57 59 60 60 59 58 61 66 71 73 75 77 79 81 81 80 78 76 72 68 66 65 63 61 59 57 55 54 53 53 58 65 71 75 78 80 83 89 96 103 106
59 58 57 55 53 51 50 50 49 50 52 52 53 55 57 57 57 58 59 60 60 62 63 64 64 64 65 67 70 72 75 77 79 82 84 85 86 85 81 77 71 63 58 58 59 60 60 60 61 65 69 75 78 79 81 83 83 83 81 80 78 75 71 68 68 68 66 63 60 58 56 55 54 53 56 62 68 71 74 77 79 84 91 98 104
59 58 57 56 54 52 51 51 51 53 54 55 57 58 57 56 58 60 61 61 61 62 63 64 65 66 68 70 72 75 78 80 82 84 85 84 81 77 74 71 64 56 56 61 63 64 65 67 69 72 76 79 82 84 86 86 85 82 80 78 77 74 71 70 70 70 68 64 60 58 57 55 54 53 55 59 64 68 70 73 76 80 86 92 100
58 58 57 56 55 53 53 53 54 55 56 58 60 59 57 56 60 62 62 63 63 63 64 65 66 68 70 72 75 77 79 80 81 81 80 77 74 71 69 64 59 57 61 66 67 69 71 73 76 79 81 83 85 87 88 86 83 82 80 77 75 74 73 72 72 72 69 64 60 57 56 56 53 52 54 57 61 64 65 69 73 76 81 87 94
59 58 57 57 55 55 55 56 56 57 59 60 61 59 57 58 62 64 64 64 64 63 64 65 67 69 70 72 74 75 77 78 78 77 76 73 70 65 60 58 59 62 65 67 69 72 74 77 81 83 84 87 90 89 86 83 82 81 78 76 75 75 75 74 73 72 68 63 58 55 55 55 52 50 52 54 58 62 62 64 69 73 77 83 90
59 59 58 58 56 56 58 59 59 60 61 62 62 61 59 60 64 66 66 66 65 62 64 66 67 69 70 72 74 74 75 76 76 75 72 66 61 56 54 58 64 65 67 71 74 77 80 81 83 86 89 90 89 86 83 81 80 78 76 75 76 76 76 74 72 71 67 61 55 52 52 53 51 49 50 52 56 60 60 60 64 70 75 80 86
60 59 59 59 58 58 60 61 62 63 64 65 66 62 61 64 67 67 68 68 60 56 61 67 68 69 71 73 74 74 74 74 71 70 66 60 58 59 59 62 68 72 76 80 81 81 83 85 86 89 90 88 85 84 82 79 77 76 76 76 77 77 76 73 70 68 65 60 53 49 51 51 48 46 49 52 55 58 58 58 61 67 73 78 82
61 59 59 59 60 60 61 62 64 65 66 68 66 61 62 67 69 67 69 67 57 55 64 69 69 71 72 73 74 74 72 69 66 66 65 63 64 65 66 69 76 81 83 83 82 82 84 85 86 86 85 84 82 81 79 76 75 76 77 77 78 77 74 71 68 66 63 58 51 47 49 50 45 44 49 53 54 56 58 58 59 64 70 75 79
63 61 61 60 61 62 63 64 66 66 69 69 63 61 66 70 69 69 70 67 63 64 69 70 70 72 72 71 73 71 66 63 64 68 69 66 64 65 69 75 79 81 82 81 81 82 82 82 82 82 81 80 78 76 75 75 76 77 77 78 78 76 73 70 68 65 61 57 50 44 46 49 45 44 49 52 53 55 56 56 57 61 67 72 75
64 64 63 63 63 64 65 66 68 68 69 68 64 65 70 71 70 71 71 70 69 69 70 70 71 72 70 68 67 66 64 65 68 71 72 70 68 69 72 76 78 79 80 80 80 79 79 79 79 78 77 76 74 74 75 76 77 78 77 77 76 74 71 68 66 63 60 56 49 41 41 46 46 44 49 52 52 53 55 55 55 58 64 69 72
65 65 66 65 66 67 67 69 70 70 71 70 69 71 72 71 72 73 72 71 71 71 71 71 72 71 67 63 62 65 69 71 73 74 74 73 73 74 76 78 79 80 79 78 78 77 77 76 75 73 73 73 74 74 76 77 77 77 76 75 74 71 68 66 64 61 58 55 49 39 36 44 48 45 47 51 51 52 55 55 54 56 61 65 68
66 66 67 67 68 69 70 71 72 73 72 72 72 73 73 73 74 73 73 72 71 71 71 71 72 66 57 57 63 69 73 74 75 75 76 77 79 79 79 80 79 79 78 76 74 73 73 73 73 73 73 74 75 76 77 77 76 75 74 73 71 68 66 64 61 57 56 54 48 37 32 42 49 45 46 50 50 51 54 54 52 54 58 62 65
67 67 68 69 70 71 72 73 74 74 74 73 73 74 75 75 74 73 72 71 70 71 71 72 70 60 54 60 70 74 76 76 76 77 79 81 82 81 80 79 77 76 74 73 71 70 71 71 72 74 75 76 77 78 78 77 76 73 71 69 67 64 63 61 58 55 53 53 46 34 31 42 48 45 45 47 47 50 53 52 52 54 57 61 65
69 69 69 70 72 73 74 75 75 75 75 74 75 76 77 75 73 71 71 70 70 72 74 72 68 63 65 72 76 77 78 78 78 81 84 84 82 81 79 77 74 72 71 70 70 70 71 71 73 75 77 78 79 79 79 78 75 72 68 66 65 62 59 57 55 52 51 51 43 31 31 42 47 44 43 42 44 49 53 52 54 56 57 61 64
Wind_Direction
33 30 32 34 38 41 42 46 51 57 63 65 60 55 50 48 49 49 47 45 42 41 40 39 37 34 29 16 334 284 265 260 263 269 271 268 262 256 254 254 253 251 250 253 254 251 249 243 241 240 234 230 232 232 222 209 216 242 287 295 282 262 251 246 248 249 250 249 246 244 233 221 211 205 203 203 197 182 160 131 111 108 112 118 122
32 24 19 19 21 19 20 26 32 41 52 56 52 47 44 42 45 46 47 46 46 45 43 42 40 39 37 34 28 7 316 277 264 262 265 268 267 262 257 255 256 258 257 258 257 252 248 245 247 252 248 243 240 236 236 236 232 232 253 279 280 268 256 246 244 247 250 252 252 251 249 243 231 221 214 213 211 202 194 175 146 135 132 134 137
31 26 20 19 17 13 15 15 12 10 14 26 29 29 30 31 35 38 41 42 43 45 46 47 45 43 42 40 37 33 24 358 304 275 267 266 267 267 263 259 257 258 260 260 260 256 251 248 250 255 255 253 251 243 239 243 247 246 240 246 263 272 276 262 248 245 246 249 252 251 252 250 246 238 227 221 219 212 208 205 186 168 159 158 163
27 25 22 22 20 16 19 17 9 351 339 350 352 354 7 18 22 23 29 37 38 41 43 45 47 46 45 44 42 40 37 32 20 349 299 277 271 270 268 265 262 259 258 258 259 258 255 251 251 255 257 258 260 257 249 243 247 256 251 241 244 257 265 272 266 254 246 244 246 249 249 249 248 246 240 231 225 219 215 213 208 198 184 176 176
20 20 18 18 17 15 17 16 11 354 332 333 331 327 346 4 9 9 19 33 36 38 39 41 42 43 43 43 43 42 40 39 35 30 17 340 294 277 271 269 268 264 260 256 255 256 256 252 251 255 259 259 261 263 260 248 246 256 262 259 256 254 253 263 270 266 257 247 244 245 246 247 246 245 245 240 232 225 219 217 215 210 202 191 183
16 14 13 13 13 13 11 8 7 359 336 330 330 329 337 348 358 6 21 35 35 36 36 37 38 38 38 38 38 39 38 38 38 36 33 26 11 333 291 276 272 269 266 261 256 254 254 253 252 253 256 258 258 259 262 258 248 250 260 265 263 260 260 266 270 270 270 262 251 246 245 244 246 245 246 246 243 235 226 221 219 218 212 203 191
13 11 10 10 12 11 6 5 3 356 345 339 337 336 338 345 355 9 28 36 34 33 32 33 33 33 33 32 32 32 33 33 34 34 33 32 28 21 7 332 294 277 270 266 261 256 254 253 252 251 253 255 255 255 258 261 255 249 251 251 249 247 247 253 262 269 273 270 261 252 247 245 245 246 246 247 249 246 238 229 224 223 219 213 203
11 7 6 6 9 8 6 8 7 1 359 354 346 343 343 347 355 13 31 33 31 29 27 27 27 27 27 26 25 25 26 26 27 27 27 28 29 28 24 17 7 338 295 273 265 259 255 253 251 250 249 252 253 251 250 253 248 241 239 240 241 241 235 236 246 258 268 271 266 257 249 246 245 246 247 246 247 247 244 236 230 227 225 221 216
8 7 4 1 0 1 4 13 16 13 12 8 1 356 352 353 1 18 28 26 24 22 20 19 19 19 19 19 19 18 18 19 20 20 20 21 21 23 24 23 21 17 5 330 286 267 258 253 251 249 247 248 251 247 240 238 239 237 236 237 240 242 239 234 235 242 251 260 262 253 242 240 240 241 244 244 243 244 244 240 233 229 227 226 223
4 3 2 359 355 351 354 7 19 21 20 19 15 11 7 8 12 17 18 16 14 13 13 12 11 12 13 12 12 12 12 11 12 13 14 15 14 15 17 19 20 19 18 13 358 320 276 257 250 247 245 245 246 246 237 232 236 237 236 239 240 241 242 239 235 234 236 245 254 253 247 240 236 236 239 241 240 240 241 242 238 233 229 227 227
358 359 359 357 354 348 342 340 351 1 3 2 4 5 4 1 360 360 2 4 4 4 4 4 4 4 5 6 5 6 6 6 5 5 6 8 10 9 9 12 14 16 17 20 18 9 349 297 258 246 243 242 243 244 241 236 237 237 235 239 243 243 243 243 240 237 236 238 244 250 251 248 240 234 233 236 238 238 237 239 239 237 234 231 229
354 354 355 354 352 349 342 330 324 326 328 327 330 337 342 342 341 341 344 349 353 355 356 357 358 358 359 359 360 1 1 1 1 1 1 2 4 5 4 4 8 12 14 18 23 21 14 9 324 257 242 239 241 243 244 242 239 238 234 234 241 245 244 244 244 241 240 240 241 243 246 248 247 242 235 232 235 236 235 235 237 237 236 235 233
351 351 351 350 349 347 343 335 324 318 317 315 315 322 330 331 327 326 329 336 343 347 349 350 351 353 353 353 354 355 356 356 357 358 358 359 0 2 2 1 2 7 10 13 21 27 26 28 27 343 251 238 238 240 242 245 244 242 239 235 236 241 243 245 246 245 243 242 243 244 243 243 246 248 244 238 235 234 234 233 233 235 236 235 235
346 346 346 345 343 342 341 338 330 321 317 318 319 324 328 328 323 319 319 325 334 340 343 344 345 347 348 348 348 349 351 352 352 353 354 356 358 359 360 0 0 2 7 9 12 22 26 29 37 33 358 243 237 238 241 246 248 246 245 242 238 236 239 244 246 247 246 244 245 246 246 243 242 244 247 246 241 235 233 232 231 232 234 235 235
341 341 341 340 339 337 337 336 330 322 316 317 321 325 328 329 327 322 318 321 330 337 338 338 339 341 342 343 343 343 345 347 347 348 349 351 353 356 356 358 359 1 4 6 7 11 20 24 29 33 33 19 244 239 243 247 249 249 249 249 246 240 238 241 245 246 247 247 246 246 247 246 243 241 242 247 248 242 237 233 232 232 233 234 235
336 335 335 336 337 336 335 334 329 321 314 314 318 323 325 327 329 329 325 324 328 333 334 333 333 333 335 337 338 339 340 341 343 344 345 347 349 351 353 353 356 359 1 4 7 7 12 17 18 19 21 24 22 289 253 253 253 254 252 252 251 247 242 242 245 247 246 246 246 245 246 246 244 242 241 243 247 248 242 235 232 231 232 232 233
333 332 331 333 335 335 335 334 331 322 312 309 313 319 322 323 325 326 326 325 325 328 330 329 328 327 328 331 333 335 335 336 337 339 341 343 346 347 348 349 351 354 356 359 2 5 6 7 8 7 5 6 10 13 357 306 276 265 260 257 255 253 250 246 246 248 248 246 245 243 244 244 244 244 242 241 244 247 245 238 233 230 230 232 232
334 332 331 331 332 333 333 333 332 326 314 307 309 313 318 319 318 319 320 321 321 322 323 323 324 323 323 325 328 331 331 331 332 333 336 338 341 344 344 344 346 348 350 352 355 358 360 0 359 357 355 353 352 351 350 344 328 305 285 273 267 261 256 252 249 249 250 250 247 243 241 242 244 245 244 242 241 244 245 241 235 232 231 232 234
334 333 331 330 330 330 331 331 331 329 320 311 308 310 314 315 315 315 316 317 317 317 318 319 320 321 320 321 324 327 327 328 329 329 331 333 335 338 340 340 340 341 343 344 347 350 351 352 352 350 348 345 342 340 338 335 330 323 312 298 288 279 266 257 253 251 251 252 251 247 243 240 240 242 244 243 241 240 242 242 238 235 233 234 235
332 332 330 329 329 329 329 329 328 328 325 318 312 310 311 313 313 314 316 317 317 317 318 319 319 318 318 318 321 323 324 324 326 326 326 328 331 332 334 336 335 334 335 336 338 341 343 342 343 343 341 338 335 332 331 330 328 326 321 311 302 296 284 269 258 252 251 251 251 250 247 242 240 239 239 241 243 242 240 240 238 235 234 235 236
329 329 328 327 327 327 326 325 325 325 325 323 318 313 311 313 314 316 317 317 317 317 318 318 317 316 316 316 317 319 321 321 323 324 324 325 327 328 329 331 331 329 329 329 330 332 333 332 332 332 331 330 328 325 322 322 323 323 322 317 309 304 298 286 268 256 252 250 249 248 247 245 242 240 239 237 238 241 241 240 237 233 232 235 237
328 327 326 325 325 325 324 324 324 324 324 323 322 318 314 315 316 316 317 316 316 316 316 316 316 314 314 315 315 315 317 318 320 322 323 323 324 325 325 325 326 326 326 324 323 325 324 322 322 321 321 321 320 317 315 316 317 318 319 316 311 307 303 294 278 261 254 252 249 247 246 245 243 241 241 239 236 236 238 240 238 234 231 232 235
326 326 325 324 324 323 323 323 323 323 322 322 321 319 316 315 316 317 317 316 315 315 315 315 314 313 313 312 312 312 313 315 318 320 321 321 321 322 322 321 320 321 323 322 319 319 318 315 314 314 313 313 312 310 310 311 312 313 314 313 309 307 303 295 281 265 256 253 250 248 246 245 243 241 241 241 240 236 234 236 238 236 232 230 231
325 324 324 324 323 323 323 323 322 321 320 320 319 317 315 314 314 316 317 315 314 314 314 314 313 312 311 310 309 309 312 313 315 318 318 317 317 319 319 316 315 316 319 319 317 315 314 312 310 309 308 307 306 306 307 308 309 309 309 308 306 304 301 293 281 268 260 254 251 249 247 245 244 242 240 239 239 239 236 234 234 236 233 229 228
323 323 322 322 322 322 322 321 321 319 318 317 317 315 314 313 313 315 316 315 313 314 313 313 312 311 309 308 307 306 309 312 314 315 316 315 314 315 315 312 310 312 315 316 314 313 311 309 307 305 305 304 303 303 304 304 305 305 305 303 302 301 297 289 279 270 264 259 254 251 249 246 244 243 241 239 237 237 238 236 233 233 233 230 227
322 322 321 321 321 320 320 320 319 318 317 316 315 315 314 312 312 314 314 314 313 313 314 313 311 310 307 305 304 305 307 311 313 314 314 313 312 312 310 307 306 309 312 312 312 311 310 307 305 304 303 303 302 301 301 301 300 300 300 298 298 298 295 287 276 271 268 264 259 254 251 248 246 243 242 240 237 235 235 236 236 232 231 231 229
321 321 321 321 320 319 319 320 318 317 317 316 316 315 314 312 311 310 311 312 313 313 315 314 311 308 306 304 304 304 307 311 313 313 313 312 311 310 306 303 304 307 309 309 309 310 310 307 306 304 303 302 301 298 298 299 297 295 295 295 296 296 295 290 279 273 271 268 263 258 254 250 247 244 242 240 238 235 233 233 235 235 232 230 229
321 321 321 320 320 320 320 319 318 317 317 316 315 315 313 312 311 310 310 311 311 312 314 313 311 309 306 304 302 301 304 308 311 311 311 311 309 307 305 304 304 305 307 309 311 313 313 310 308 306 303 301 300 297 295 295 295 293 291 293 295 296 296 294 288 282 277 273 267 261 256 252 248 244 242 240 238 236 233 231 232 235 234 231 229
320 320 320 320 319 319 319 318 317 316 316 315 313 311 310 311 311 310 310 310 308 309 312 312 310 308 305 302 300 300 302 305 309 310 309 308 306 304 304 303 303 305 309 312 314 315 314 312 309 306 304 302 300 297 295 293 291 288 287 288 291 293 294 294 292 290 286 280 274 266 260 255 250 245 242 240 238 237 234 231 230 231 234 232 229
319 319 319 319 319 318 317 317 316 315 314 313 311 310 310 311 310 309 309 308 306 307 310 311 308 306 304 302 300 300 300 304 307 308 305 303 301 301 301 301 303 307 311 313 313 314 314 311 309 307 305 302 300 299 296 291 286 285 286 287 289 291 292 292 291 290 287 284 279 272 265 257 252 247 243 240 238 236 235 233 230 229 230 231 229
318 318 319 319 319 318 317 317 316 313 312 312 311 310 310 309 307 307 308 307 306 308 309 309 307 304 302 301 299 298 299 302 303 301 298 297 297 298 299 301 304 307 309 312 313 313 313 310 308 308 306 303 301 298 293 288 286 288 290 291 292 293 293 292 290 288 286 283 280 274 268 261 254 249 245 241 238 235 234 233 231 229 228 228 228
316 317 318 319 319 319 317 316 314 311 309 310 310 308 306 307 307 307 307 307 307 308 309 307 305 302 300 298 296 296 296 296 296 293 292 292 294 297 299 301 302 305 308 312 313 312 312 310 309 308 306 304 301 295 289 288 290 292 292 294 296 297 298 297 294 292 289 286 281 275 268 262 256 250 246 243 239 236 233 232 231 229 227 226 226
315 316 318 319 319 318 315 313 312 310 309 310 310 309 308 309 309 309 309 308 308 308 307 306 303 300 297 296 294 293 293 293 291 290 289 292 295 297 299 300 303 306 310 312 313 311 310 309 308 307 305 302 298 294 292 292 294 296 298 300 301 301 301 300 299 296 293 289 284 277 268 261 255 251 247 244 240 237 233 231 230 229 227 225 225
314 316 318 319 318 316 313 311 312 312 312 313 313 312 312 312 312 311 309 307 306 305 305 303 300 297 295 294 293 292 291 290 289 289 290 293 296 297 299 302 306 309 312 313 312 310 308 306 306 304 302 299 297 296 297 297 298 300 302 303 302 301 301 301 300 298 295 292 287 279 270 261 254 250 247 245 242 238 234 231 229 228 227 225 224
314 317 317 317 316 314 312 311 313 314 314 314 314 313 313 312 312 310 307 304 303 302 302 300 297 294 292 291 291 289 288 288 288 289 291 293 295 298 301 306 309 311 312 312 310 308 306 304 303 301 299 298 297 298 299 300 301 301 302 302 301 302 302 302 300 298 296 293 289 283 275 264 256 251 247 245 243 240 236 232 229 227 226 225 223
314 315 315 314 314 312 310 310 312 314 314 313 312 311 311 310 309 308 305 302 301 300 299 298 295 292 290 289 288 288 287 287 288 289 291 293 296 300 304 307 309 310 311 310 308 305 303 302 301 300 298 296 296 298 299 300 300 300 301 301 302 303 303 302 301 299 296 293 289 284 279 271 261 254 249 245 243 241 237 233 230 227 226 224 223
313 314 313 313 312 311 310 310 311 312 312 311 311 310 309 308 308 308 306 303 301 300 299 297 295 293 292 290 289 288 288 287 288 289 291 294 297 301 304 306 308 311 311 309 306 303 302 302 301 298 295 293 295 296 298 299 299 300 301 302 303 304 304 303 301 299 296 293 289 285 281 274 265 256 251 247 243 241 239 235 231 228 226 224 224
312 312 312 312 311 311 309 309 309 309 309 310 310 309 309 307 307 307 306 304 302 300 298 297 296 295 293 291 290 289 288 288 288 290 293 295 298 301 304 307 311 312 309 306 304 303 303 302 299 295 293 294 296 297 298 298 299 300 301 303 304 304 304 303 301 299 297 294 291 287 282 276 267 258 252 249 245 242 239 237 233 229 226 224 223
310 310 310 310 310 309 308 307 307 307 308 309 309 310 308 307 307 307 305 303 301 299 297 296 295 294 292 291 289 289 289 289 291 292 294 296 299 302 307 311 313 310 306 304 303 302 301 298 295 293 294 295 297 298 299 300 300 301 303 304 305 304 303 302 300 299 297 294 291 288 283 277 269 261 253 250 248 244 240 238 234 230 227 224 222
309 309 309 309 308 308 307 306 306 307 308 309 309 310 308 307 308 309 306 303 301 299 297 296 294 292 291 290 290 290 290 291 293 294 296 298 302 307 311 312 310 304 300 300 299 297 296 294 292 292 294 295 297 299 300 301 302 303 304 305 304 303 302 302 300 299 297 294 291 288 284 278 271 264 257 252 249 247 242 238 235 231 228 225 222
307 307 307 307 306 306 305 305 305 306 307 309 310 310 307 307 309 309 306 303 301 298 295 293 291 291 290 290 291 291 292 293 295 297 299 303 308 311 311 309 305 300 298 297 296 295 295 295 295 295 296 296 298 300 301 302 303 304 305 305 304 303 302 302 301 299 297 294 291 289 284 278 271 264 259 253 250 248 244 238 234 231 228 226 223
306 307 306 305 304 304 304 304 305 306 307 309 311 309 306 305 307 308 305 303 301 298 295 294 294 294 294 293 294 294 294 296 297 299 302 306 309 310 308 305 302 299 298 297 296 295 296 296 296 296 296 297 299 300 301 302 304 304 304 304 303 303 303 302 301 299 296 293 291 288 283 277 270 264 259 254 250 248 245 239 234 230 227 225 224
306 306 305 304 303 303 304 304 305 307 309 310 311 309 305 305 306 306 306 306 305 301 298 298 299 299 298 297 297 297 297 298 299 301 304 306 308 308 304 302 301 299 297 297 296 295 296 296 295 295 296 298 299 301 302 303 304 304 303 304 303 304 303 302 301 299 296 294 291 287 281 274 269 264 259 253 249 247 245 241 234 229 226 224 223
304 304 303 303 303 303 305 305 307 309 309 310 311 309 306 306 308 307 308 309 305 298 298 301 301 300 300 299 299 299 300 301 302 303 304 304 305 305 301 300 299 297 296 297 297 296 296 295 294 295 297 299 300 301 302 303 303 303 303 304 304 303 303 302 301 299 296 294 291 286 281 274 267 263 259 253 249 246 244 241 235 228 225 223 221
303 303 303 302 303 304 305 306 308 309 310 311 311 308 305 308 310 309 309 309 303 296 298 301 301 300 301 302 301 301 301 301 300 300 300 302 305 305 302 298 297 296 297 298 297 296 295 295 295 296 298 299 301 302 303 303 303 303 304 304 304 304 304 303 301 299 296 293 289 285 279 273 267 261 258 253 248 245 242 240 235 228 224 222 220
303 303 303 303 303 305 306 307 309 309 310 311 309 305 307 310 310 310 309 308 303 300 301 303 301 302 304 304 302 300 300 299 299 299 301 304 304 300 295 294 294 296 297 296 296 296 296 295 296 298 299 300 301 302 302 302 303 303 304 304 304 304 304 303 301 298 296 292 288 283 277 273 266 259 256 252 247 244 242 239 234 228 224 222 220
304 304 304 305 306 307 307 308 308 309 310 311 307 306 309 310 310 310 309 307 305 303 303 303 302 303 305 301 297 297 299 299 300 301 304 305 303 298 295 296 297 298 298 298 298 298 298 298 299 299 300 301 302 302 301 301 302 303 304 304 304 303 303 302 300 298 295 291 287 282 275 270 264 257 253 251 246 243 241 237 233 227 223 221 219
304 305 305 306 307 308 308 309 310 310 311 310 309 308 310 311 310 310 308 306 305 304 304 304 303 305 303 296 293 297 301 302 303 304 306 307 305 303 302 303 303 302 302 301 301 301 301 301 301 302 302 302 301 301 300 301 302 303 304 304 303 303 302 300 299 297 294 290 285 280 273 267 262 255 250 249 245 241 239 236 231 226 223 221 218
305 305 306 307 307 308 309 309 310 310 311 311 310 310 310 311 310 308 306 305 304 304 305 305 306 306 298 290 293 299 302 303 304 305 306 307 306 305 305 305 305 304 303 302 302 303 303 303 303 303 302 302 301 301 301 302 303 304 304 304 302 302 301 299 298 296 293 289 283 278 269 262 259 253 248 246 244 240 238 235 231 225 222 220 218
305 305 306 307 307 308 309 310 310 310 311 311 310 310 310 310 309 306 304 303 304 305 305 306 308 304 292 290 297 301 302 303 304 306 307 307 307 307 307 306 305 304 303 303 304 304 304 304 304 303 303 302 302 303 303 304 305 305 304 302 301 300 299 297 296 294 292 287 281 275 263 258 256 251 246 244 242 240 237 233 229 225 220 218 217
305 305 306 306 308 309 309 310 310 310 311 311 310 309 309 309 306 304 303 304 304 305 305 306 305 299 293 295 300 302 302 303 305 307 308 308 309 309 308 307 305 304 304 305 305 305 305 304 304 304 304 304 304 305 306 306 306 305 304 302 300 299 297 295 294 292 289 284 278 271 258 254 254 249 244 242 240 239 236 231 227 224 220 218 218
Height
10967 10967 10967 10966 10965 10964 10963 10962 10962 10961 10958 10957 10955 10953 10953 10952 10950 10948 10946 10944 10941 10938 10936 10933 10931 10928 10926 10925 10924 10924 10924 10925 10925 10926 10927 10927 10928 10929 10929 10929 10928 10927 10927 10927 10929 10930 10931 10930 10929 10930 10930 10929 10929 10929 10928 10927 10927 10927 10928 10928 10927 10927 10928 10928 10929 10929 10930 10931 10932 10933 10933 10933 10934 10934 10934 10935 10935 10935 10935 10935 10935 10935 10935 10934 10934
10969 10969 10968 10967 10966 10964 10963 10963 10961 10960 10959 10958 10956 10954 10953 10954 10952 10949 10948 10946 10944 10942 10939 10937 10934 10932 10930 10928 10926 10924 10924 10924 10924 10924 10924 10925 10925 10926 10927 10927 10927 10926 10926 10927 10928 10929 10929 10929 10929 10929 10930 10929 10929 10928 10928 10927 10927 10926 10926 10927 10926 10927 10927 10927 10927 10928 10929 10930 10931 10932 10933 10933 10934 10934 10934 10934 10935 10935 10935 10935 10935 10935 10935 10934 10934
10970 10970 10969 10968 10966 10965 10963 10962 10961 10961 10960 10958 10957 10955 10954 10954 10953 10951 10950 10948 10946 10944 10942 10940 10938 10936 10934 10931 10929 10927 10925 10924 10923 10923 10923 10923 10923 10923 10924 10924 10924 10924 10925 10926 10927 10927 10927 10927 10927 10927 10928 10928 10928 10928 10928 10928 10927 10926 10926 10925 10926 10926 10926 10927 10927 10927 10928 10929 10930 10931 10932 10933 10933 10934 10934 10934 10934 10935 10935 10935 10935 10935 10935 10934 10934
10970 10970 10969 10967 10966 10965 10963 10963 10962 10962 10961 10958 10956 10955 10954 10954 10954 10954 10952 10950 10948 10946 10944 10942 10940 10938 10936 10934 10932 10930 10928 10926 10925 10923 10923 10922 10922 10922 10921 10921 10921 10922 10922 10923 10924 10924 10925 10925 10925 10925 10925 10926 10927 10928 10928 10928 10928 10927 10926 10925 10925 10926 10926 10926 10927 10927 10927 10927 10928 10929 10930 10931 10932 10933 10933 10933 10934 10934 10934 10934 10935 10935 10934 10934 10934
10971 10969 10968 10967 10966 10965 10964 10963 10962 10962 10961 10958 10956 10955 10954 10953 10955 10955 10954 10951 10949 10947 10945 10943 10941 10939 10937 10936 10934 10932 10930 10929 10927 10925 10923 10922 10921 10920 10920 10919 10919 10920 10920 10921 10921 10921 10922 10923 10922 10922 10923 10924 10926 10926 10927 10927 10928 10928 10926 10925 10925 10925 10925 10925 10925 10926 10926 10926 10927 10927 10928 10929 10931 10931 10932 10932 10933 10933 10933 10934 10934 10934 10934 10934 10934
10971 10970 10968 10967 10966 10964 10964 10963 10962 10961 10960 10958 10955 10954 10954 10953 10954 10954 10953 10951 10950 10948 10946 10944 10942 10940 10938 10937 10935 10933 10932 10930 10929 10927 10925 10923 10921 10920 10918 10917 10917 10917 10918 10918 10918 10918 10918 10919 10920 10920 10921 10922 10924 10925 10926 10926 10927 10927 10927 10925 10924 10924 10924 10924 10924 10924 10925 10925 10925 10926 10926 10927 10928 10930 10931 10931 10932 10932 10933 10933 10933 10934 10934 10934 10934
10971 10970 10969 10968 10966 10965 10964 10963 10961 10961 10960 10957 10955 10954 10954 10954 10954 10954 10953 10952 10950 10948 10947 10945 10943 10941 10939 10937 10936 10934 10932 10931 10929 10928 10926 10925 10923 10921 10919 10917 10915 10915 10915 10915 10915 10915 10915 10916 10916 10917 10918 10920 10922 10924 10925 10926 10927 10927 10924 10920 10919 10920 10921 10921 10922 10923 10924 10924 10924 10924 10925 10925 10926 10928 10929 10930 10931 10932 10932 10933 10933 10933 10933 10933 10933
10972 10970 10969 10968 10967 10966 10965 10963 10961 10960 10959 10957 10955 10954 10954 10954 10954 10953 10953 10951 10950 10948 10947 10945 10943 10942 10940 10938 10936 10934 10932 10931 10929 10928 10927 10925 10924 10922 10920 10918 10916 10914 10912 10911 10911 10911 10912 10912 10913 10913 10915 10916 10918 10922 10924 10925 10924 10921 10916 10914 10914 10916 10918 10919 10920 10921 10922 10923 10923 10923 10923 10924 10925 10926 10927 10928 10929 10930 10931 10932 10932 10932 10933 10933 10933
10972 10971 10969 10968 10967 10966 10965 10963 10961 10960 10958 10957 10956 10955 10954 10954 10954 10953 10953 10951 10950 10948 10946 10945 10943 10942 10940 10938 10936 10934 10933 10931 10929 10928 10927 10925 10924 10922 10920 10919 10916 10914 10912 10910 10908 10907 10907 10908 10908 10910 10911 10913 10915 10918 10921 10920 10915 10910 10910 10912 10913 10914 10915 10917 10918 10919 10920 10921 10921 10921 10921 10922 10923 10923 10925 10926 10927 10928 10929 10930 10930 10931 10931 10932 10932
10972 10971 10970 10969 10967 10966 10965 10963 10962 10960 10959 10958 10957 10956 10955 10954 10954 10953 10952 10950 10949 10947 10946 10944 10943 10941 10939 10938 10936 10934 10933 10931 10929 10928 10926 10925 10923 10922 10920 10918 10917 10914 10912 10909 10906 10904 10903 10903 10904 10905 10908 10909 10912 10914 10915 10912 10906 10905 10909 10911 10911 10912 10914 10916 10917 10917 10918 10918 10918 10919 10919 10920 10920 10921 10922 10923 10924 10925 10927 10928 10928 10929 10930 10930 10931
10972 10971 10970 10969 10967 10966 10965 10964 10962 10961 10959 10958 10957 10956 10955 10954 10953 10952 10951 10949 10948 10946 10945 10944 10942 10940 10939 10937 10936 10934 10932 10931 10929 10927 10926 10924 10923 10921 10919 10918 10916 10914 10912 10909 10906 10903 10901 10900 10899 10900 10903 10905 10908 10909 10909 10906 10903 10905 10909 10910 10909 10911 10912 10914 10915 10915 10916 10916 10916 10917 10918 10918 10918 10919 10919 10920 10921 10922 10924 10925 10926 10927 10928 10929 10929
10972 10971 10969 10968 10967 10966 10965 10963 10962 10960 10959 10958 10957 10956 10955 10954 10953 10951 10949 10948 10946 10945 10944 10942 10941 10939 10938 10936 10935 10933 10932 10930 10928 10926 10925 10923 10922 10920 10918 10917 10915 10913 10911 10908 10905 10902 10899 10897 10896 10896 10898 10901 10904 10905 10904 10903 10902 10904 10907 10908 10908 10909 10910 10911 10912 10913 10913 10914 10914 10915 10916 10917 10917 10917 10917 10917 10918 10919 10920 10922 10923 10924 10925 10927 10927
10971 10970 10969 10967 10966 10965 10964 10962 10961 10959 10958 10957 10956 10955 10954 10953 10952 10950 10948 10947 10945 10944 10942 10941 10939 10938 10937 10935 10934 10932 10931 10929 10927 10925 10923 10922 10920 10919 10917 10915 10914 10912 10910 10908 10905 10902 10899 10896 10894 10893 10894 10897 10899 10900 10901 10900 10901 10902 10904 10905 10906 10907 10908 10909 10910 10910 10911 10911 10912 10912 10913 10914 10915 10915 10915 10915 10915 10916 10917 10918 10920 10921 10922 10924 10925
10970 10969 10968 10966 10965 10964 10962 10961 10960 10958 10957 10956 10955 10954 10953 10952 10950 10948 10947 10945 10944 10942 10941 10939 10938 10937 10935 10934 10933 10931 10929 10927 10925 10923 10922 10920 10918 10916 10915 10914 10912 10910 10908 10906 10904 10901 10899 10896 10894 10893 10892 10893 10895 10897 10898 10898 10899 10900 10902 10903 10904 10904 10905 10906 10908 10908 10908 10909 10909 10909 10910 10911 10912 10912 10913 10913 10913 10913 10914 10915 10916 10918 10920 10921 10922
10968 10967 10966 10965 10964 10962 10961 10960 10959 10957 10956 10955 10954 10953 10951 10950 10948 10947 10945 10944 10943 10941 10939 10938 10936 10935 10933 10932 10931 10929 10928 10926 10924 10922 10920 10918 10916 10914 10913 10911 10909 10908 10906 10905 10903 10901 10898 10896 10894 10892 10892 10892 10893 10895 10895 10896 10896 10898 10899 10900 10901 10901 10901 10902 10903 10905 10905 10906 10906 10907 10907 10907 10908 10909 10910 10910 10911 10911 10912 10913 10914 10915 10916 10918 10919
10967 10966 10964 10963 10962 10961 10960 10958 10957 10956 10955 10954 10953 10951 10950 10948 10947 10945 10943 10942 10941 10939 10938 10936 10934 10933 10932 10930 10929 10927 10926 10924 10922 10921 10919 10916 10914 10912 10911 10909 10907 10905 10904 10903 10901 10900 10898 10895 10893 10892 10891 10891 10892 10893 10894 10894 10895 10895 10896 10897 10897 10898 10898 10897 10897 10899 10901 10902 10902 10903 10903 10904 10904 10905 10906 10907 10907 10909 10910 10911 10911 10912 10913 10914 10915
10965 10964 10963 10962 10961 10959 10958 10957 10955 10954 10954 10952 10951 10950 10948 10947 10945 10944 10942 10941 10939 10937 10936 10934 10932 10931 10929 10928 10926 10925 10923 10921 10920 10918 10916 10914 10913 10911 10909 10907 10905 10903 10902 10900 10899 10898 10896 10894 10893 10891 10890 10890 10890 10891 10892 10892 10892 10893 10893 10893 10894 10894 10894 10894 10893 10892 10894 10896 10897 10898 10899 10900 10900 10901 10902 10903 10904 10905 10907 10908 10908 10908 10909 10910 10911
10964 10963 10961 10960 10959 10958 10956 10955 10954 10953 10952 10950 10949 10948 10946 10945 10943 10942 10940 10938 10937 10935 10933 10932 10930 10928 10927 10925 10924 10922 10920 10919 10917 10915 10913 10911 10909 10908 10906 10904 10902 10900 10899 10898 10896 10895 10893 10892 10891 10890 10889 10888 10888 10888 10889 10889 10889 10890 10890 10889 10889 10889 10889 10889 10889 10888 10888 10889 10891 10892 10894 10895 10896 10897 10898 10899 10900 10901 10902 10903 10904 10905 10906 10907 10908
10962 10961 10960 10958 10957 10956 10955 10954 10952 10951 10950 10948 10947 10945 10944 10943 10941 10940 10938 10936 10935 10933 10931 10929 10927 10926 10924 10922 10921 10919 10917 10916 10914 10912 10910 10908 10906 10904 10903 10901 10899 10897 10896 10894 10893 10891 10890 10889 10888 10888 10887 10886 10885 10885 10884 10885 10885 10885 10885 10884 10883 10883 10882 10882 10882 10883 10882 10882 10883 10885 10887 10889 10890 10891 10892 10894 10895 10896 10897 10898 10900 10902 10903 10904 10905
10960 10959 10958 10957 10956 10955 10953 10952 10950 10949 10948 10946 10945 10943 10942 10940 10939 10937 10935 10934 10932 10930 10928 10926 10924 10923 10921 10919 10918 10916 10915 10913 10911 10909 10907 10905 10902 10900 10899 10897 10896 10894 10892 10890 10889 10888 10886 10885 10884 10884 10884 10884 10883 10882 10881 10880 10880 10880 10879 10879 10878 10877 10876 10875 10874 10875 10875 10876 10877 10878 10879 10882 10883 10885 10887 10888 10890 10891 10893 10894 10895 10897 10899 10900 10901
10958 10957 10956 10955 10954 10953 10951 10949 10948 10946 10945 10943 10942 10941 10939 10937 10936 10934 10932 10930 10928 10926 10924 10923 10921 10919 10917 10916 10914 10913 10911 10910 10908 10906 10903 10901 10899 10897 10895 10893 10892 10890 10888 10887 10885 10884 10882 10881 10880 10879 10879 10879 10879 10878 10877 10876 10875 10875 10874 10873 10872 10870 10869 10868 10867 10867 10867 10868 10870 10871 10872 10874 10876 10878 10880 10882 10884 10885 10887 10888 10890 10892 10893 10895 10897
10956 10955 10954 10953 10951 10950 10948 10947 10945 10943 10941 10940 10938 10937 10935 10933 10932 10930 10928 10926 10924 10923 10921 10919 10917 10915 10914 10912 10911 10909 10908 10906 10904 10902 10899 10897 10896 10894 10891 10889 10887 10885 10884 10883 10881 10879 10878 10877 10876 10875 10874 10873 10873 10873 10872 10871 10869 10868 10867 10866 10864 10863 10862 10861 10860 10860 10860 10860 10862 10863 10865 10866 10868 10870 10872 10875 10877 10879 10881 10882 10884 10886 10888 10890 10893
10954 10953 10951 10950 10949 10947 10946 10944 10942 10940 10938 10936 10934 10932 10931 10929 10928 10926 10924 10922 10921 10919 10917 10915 10913 10911 10910 10908 10907 10906 10904 10903 10901 10898 10895 10893 10891 10889 10887 10885 10883 10881 10880 10879 10877 10875 10874 10872 10871 10870 10869 10868 10867 10867 10866 10864 10863 10862 10860 10859 10857 10856 10854 10853 10853 10852 10853 10853 10854 10855 10857 10858 10860 10862 10864 10867 10869 10872 10874 10876 10878 10880 10882 10884 10887
10952 10951 10949 10947 10946 10944 10943 10941 10939 10937 10935 10933 10930 10929 10927 10925 10924 10922 10921 10919 10917 10915 10913 10911 10910 10908 10906 10904 10903 10902 10900 10898 10896 10893 10891 10889 10887 10885 10882 10881 10879 10877 10875 10874 10873 10871 10869 10867 10865 10864 10863 10863 10862 10861 10859 10857 10855 10854 10853 10851 10850 10849 10847 10846 10846 10845 10846 10846 10846 10847 10848 10850 10852 10854 10856 10859 10861 10863 10866 10869 10871 10873 10876 10878 10881
10950 10948 10946 10945 10943 10941 10939 10938 10936 10933 10931 10929 10927 10925 10923 10921 10920 10918 10917 10915 10914 10912 10909 10907 10905 10904 10902 10900 10899 10897 10895 10893 10891 10888 10886 10884 10883 10880 10878 10876 10874 10872 10870 10869 10867 10866 10864 10862 10860 10858 10857 10857 10856 10854 10852 10850 10848 10846 10845 10843 10842 10841 10841 10840 10839 10839 10839 10839 10839 10839 10840 10841 10843 10845 10847 10850 10853 10855 10857 10860 10863 10866 10868 10871 10874
10947 10945 10944 10942 10940 10938 10936 10934 10932 10929 10927 10925 10923 10921 10919 10917 10915 10913 10912 10910 10909 10908 10906 10903 10901 10899 10897 10895 10893 10892 10890 10888 10885 10882 10880 10879 10877 10875 10872 10870 10868 10867 10865 10864 10862 10861 10860 10858 10855 10853 10851 10850 10848 10846 10844 10843 10841 10838 10836 10835 10834 10833 10833 10833 10832 10832 10832 10831 10831 10831 10831 10832 10833 10835 10838 10840 10843 10847 10849 10851 10854 10858 10861 10864 10867
10944 10942 10940 10938 10936 10934 10932 10929 10927 10924 10922 10920 10918 10916 10915 10913 10912 10910 10907 10905 10903 10901 10900 10898 10895 10893 10891 10889 10887 10884 10882 10881 10879 10877 10875 10873 10871 10869 10866 10864 10863 10861 10860 10859 10858 10857 10856 10854 10851 10848 10845 10842 10840 10838 10836 10834 10833 10831 10829 10828 10827 10826 10825 10825 10825 10825 10824 10823 10823 10822 10822 10822 10823 10825 10827 10829 10832 10836 10840 10842 10845 10849 10853 10857 10860
10940 10939 10936 10934 10932 10929 10927 10924 10921 10919 10917 10915 10913 10912 10911 10909 10907 10905 10903 10900 10897 10895 10893 10891 10889 10887 10884 10882 10880 10877 10876 10875 10874 10872 10870 10867 10864 10862 10861 10859 10858 10856 10855 10853 10852 10851 10849 10846 10844 10841 10838 10835 10832 10831 10829 10826 10825 10823 10822 10820 10820 10819 10818 10817 10816 10816 10815 10814 10813 10812 10812 10812 10812 10813 10815 10817 10821 10824 10828 10833 10836 10839 10843 10848 10852
10936 10934 10932 10930 10928 10925 10923 10920 10918 10915 10913 10911 10910 10908 10907 10905 10903 10900 10898 10896 10893 10890 10887 10885 10882 10880 10879 10877 10874 10872 10871 10869 10868 10866 10863 10861 10859 10857 10856 10854 10853 10850 10848 10845 10843 10843 10840 10836 10834 10833 10830 10827 10824 10823 10821 10819 10818 10816 10815 10814 10813 10812 10811 10809 10808 10807 10806 10804 10803 10802 10801 10800 10800 10801 10802 10805 10808 10812 10817 10821 10825 10829 10833 10838 10843
10932 10930 10928 10926 10924 10921 10919 10916 10914 10912 10910 10908 10906 10904 10903 10901 10899 10896 10894 10891 10888 10885 10883 10880 10877 10875 10874 10872 10870 10867 10865 10864 10862 10859 10857 10856 10854 10852 10851 10849 10847 10843 10840 10836 10833 10833 10833 10828 10825 10823 10821 10819 10816 10814 10812 10812 10811 10810 10808 10807 10806 10805 10804 10802 10800 10798 10796 10794 10792 10791 10789 10788 10788 10789 10790 10792 10796 10800 10805 10810 10814 10819 10823 10828 10834
10928 10925 10923 10921 10919 10917 10914 10912 10909 10907 10905 10903 10902 10900 10898 10896 10894 10891 10889 10886 10883 10880 10878 10875 10872 10870 10869 10867 10865 10862 10860 10858 10856 10854 10852 10850 10848 10846 10844 10842 10839 10836 10833 10829 10824 10822 10823 10820 10816 10813 10812 10810 10808 10806 10804 10803 10802 10801 10800 10799 10798 10796 10795 10793 10791 10788 10785 10782 10780 10779 10777 10776 10776 10776 10778 10780 10783 10787 10792 10798 10803 10808 10812 10817 10823
10923 10921 10919 10917 10915 10912 10909 10907 10905 10902 10900 10898 10896 10894 10892 10890 10888 10885 10882 10880 10877 10875 10872 10870 10867 10865 10863 10862 10860 10857 10855 10854 10852 10850 10847 10844 10841 10839 10837 10834 10832 10829 10826 10821 10816 10812 10811 10810 10807 10804 10803 10801 10800 10798 10796 10794 10792 10791 10791 10790 10788 10786 10783 10781 10778 10776 10772 10769 10766 10765 10765 10764 10764 10764 10765 10767 10769 10773 10778 10784 10790 10796 10802 10807 10812
10919 10917 10915 10913 10911 10908 10905 10902 10900 10898 10895 10894 10892 10890 10888 10885 10883 10880 10877 10874 10872 10869 10867 10865 10862 10860 10857 10856 10854 10852 10849 10847 10846 10844 10841 10838 10835 10832 10829 10827 10824 10821 10817 10813 10808 10804 10801 10799 10797 10796 10794 10792 10791 10789 10787 10785 10782 10779 10778 10777 10776 10773 10771 10768 10764 10761 10758 10755 10753 10752 10753 10753 10752 10752 10753 10754 10756 10759 10763 10770 10776 10783 10789 10795 10801
10914 10913 10911 10908 10906 10904 10901 10898 10896 10894 10891 10888 10886 10884 10882 10879 10877 10874 10871 10869 10866 10864 10862 10860 10857 10855 10852 10850 10848 10846 10843 10841 10839 10836 10834 10831 10827 10824 10822 10819 10815 10811 10809 10805 10800 10796 10793 10790 10788 10786 10785 10783 10781 10778 10776 10774 10771 10768 10766 10765 10762 10760 10758 10755 10751 10747 10745 10742 10741 10739 10740 10740 10740 10739 10740 10741 10743 10745 10749 10754 10761 10768 10776 10783 10789
10909 10909 10906 10904 10902 10900 10897 10894 10892 10889 10886 10883 10881 10878 10876 10873 10871 10868 10866 10864 10861 10859 10857 10855 10852 10850 10847 10845 10842 10840 10837 10835 10832 10829 10826 10823 10820 10816 10813 10810 10806 10802 10800 10797 10793 10788 10785 10782 10780 10778 10776 10774 10772 10769 10766 10763 10761 10759 10757 10755 10751 10747 10745 10741 10737 10734 10732 10730 10729 10728 10727 10728 10728 10727 10727 10728 10730 10732 10735 10739 10745 10753 10761 10769 10776
10904 10904 10902 10900 10898 10895 10893 10891 10888 10885 10883 10880 10877 10874 10871 10869 10866 10864 10862 10859 10856 10854 10852 10850 10847 10845 10842 10839 10837 10834 10831 10828 10825 10822 10819 10815 10812 10808 10805 10801 10798 10794 10791 10788 10785 10782 10778 10775 10773 10771 10768 10765 10762 10759 10756 10754 10751 10750 10749 10745 10740 10736 10731 10727 10724 10722 10719 10717 10717 10716 10715 10715 10716 10715 10714 10715 10716 10718 10721 10725 10731 10738 10746 10754 10762
10900 10899 10897 10895 10893 10891 10888 10886 10884 10881 10879 10876 10873 10870 10866 10864 10862 10860 10857 10854 10851 10848 10846 10844 10841 10838 10836 10833 10830 10827 10824 10821 10818 10814 10811 10807 10803 10800 10797 10794 10790 10786 10782 10779 10776 10774 10772 10768 10765 10762 10760 10757 10753 10750 10747 10744 10742 10740 10738 10734 10729 10724 10719 10715 10712 10709 10707 10705 10703 10703 10702 10702 10702 10702 10701 10701 10701 10704 10707 10712 10717 10723 10730 10739 10748
10895 10893 10891 10890 10888 10886 10883 10881 10879 10876 10874 10871 10869 10866 10862 10859 10857 10854 10851 10848 10845 10842 10839 10837 10834 10831 10828 10826 10823 10819 10816 10813 10810 10807 10803 10800 10796 10792 10789 10785 10781 10777 10774 10772 10768 10765 10763 10761 10757 10753 10750 10747 10744 10741 10738 10735 10732 10730 10726 10722 10717 10712 10708 10704 10701 10697 10695 10693 10691 10689 10689 10688 10688 10688 10688 10687 10687 10690 10694 10699 10704 10710 10717 10725 10734
10891 10888 10886 10884 10882 10880 10878 10876 10873 10871 10868 10866 10863 10860 10857 10854 10851 10848 10845 10842 10839 10836 10833 10830 10827 10824 10821 10818 10815 10812 10808 10805 10802 10798 10795 10792 10789 10785 10780 10776 10773 10770 10767 10764 10762 10758 10756 10753 10750 10745 10741 10736 10732 10729 10726 10723 10721 10717 10714 10710 10704 10699 10696 10693 10689 10685 10682 10681 10678 10676 10675 10674 10673 10674 10674 10674 10674 10677 10681 10686 10692 10697 10703 10711 10720
10886 10884 10881 10879 10877 10875 10873 10870 10868 10866 10863 10860 10857 10855 10851 10848 10845 10841 10838 10836 10833 10830 10826 10823 10820 10817 10814 10811 10808 10804 10801 10797 10793 10790 10787 10784 10781 10776 10771 10767 10765 10763 10760 10757 10754 10751 10748 10745 10741 10737 10733 10727 10723 10719 10715 10711 10708 10705 10702 10698 10692 10687 10684 10680 10676 10672 10670 10668 10666 10664 10661 10659 10659 10660 10661 10661 10662 10665 10669 10674 10678 10683 10690 10698 10706
10882 10880 10877 10874 10872 10870 10868 10866 10863 10861 10857 10854 10852 10849 10845 10842 10839 10835 10831 10828 10826 10823 10819 10816 10813 10810 10807 10804 10800 10796 10792 10789 10785 10781 10778 10775 10772 10768 10763 10759 10757 10755 10752 10748 10744 10741 10737 10733 10729 10725 10721 10717 10713 10710 10706 10701 10697 10693 10689 10686 10680 10675 10672 10669 10664 10659 10656 10655 10654 10652 10648 10645 10646 10648 10648 10649 10650 10652 10657 10661 10665 10671 10679 10686 10693
10877 10875 10872 10869 10867 10865 10862 10860 10858 10855 10852 10849 10846 10843 10839 10837 10833 10829 10825 10821 10819 10816 10812 10808 10805 10802 10799 10796 10792 10788 10784 10781 10777 10774 10770 10767 10764 10761 10756 10752 10749 10746 10742 10739 10734 10730 10726 10722 10717 10712 10709 10706 10701 10698 10695 10691 10687 10681 10677 10674 10669 10663 10659 10656 10652 10646 10642 10642 10643 10641 10636 10632 10634 10637 10637 10638 10639 10640 10644 10649 10654 10660 10666 10672 10679
10871 10869 10865 10863 10861 10859 10855 10852 10850 10848 10845 10841 10839 10836 10833 10831 10828 10824 10819 10815 10812 10808 10804 10800 10797 10794 10791 10787 10784 10780 10776 10772 10769 10765 10762 10760 10757 10754 10750 10745 10741 10737 10734 10730 10726 10721 10717 10713 10707 10702 10698 10695 10691 10686 10683 10681 10676 10671 10666 10662 10658 10653 10647 10644 10641 10634 10629 10629 10630 10629 10624 10621 10624 10627 10627 10627 10627 10629 10634 10638 10642 10647 10652 10659 10667
10866 10864 10860 10857 10855 10853 10849 10845 10843 10840 10837 10834 10831 10828 10825 10823 10820 10817 10812 10809 10807 10802 10796 10792 10789 10786 10783 10779 10775 10772 10769 10764 10761 10757 10754 10752 10749 10746 10741 10737 10732 10728 10725 10722 10718 10713 10708 10703 10698 10693 10688 10685 10681 10675 10671 10669 10665 10660 10655 10650 10646 10642 10637 10633 10629 10623 10618 10617 10619 10619 10613 10610 10615 10618 10616 10615 10616 10619 10623 10626 10629 10634 10640 10647 10655
10860 10859 10855 10852 10849 10847 10844 10839 10836 10833 10829 10826 10823 10820 10817 10815 10812 10808 10804 10801 10800 10796 10790 10786 10782 10779 10776 10772 10768 10765 10763 10758 10753 10750 10748 10746 10742 10736 10731 10727 10722 10718 10715 10711 10708 10704 10699 10693 10688 10683 10679 10675 10671 10665 10660 10657 10653 10649 10644 10639 10634 10629 10625 10621 10617 10612 10608 10606 10608 10609 10604 10601 10606 10610 10605 10603 10606 10609 10612 10615 10619 10624 10630 10637 10645
10851 10850 10848 10846 10843 10840 10837 10833 10830 10827 10823 10819 10816 10813 10811 10807 10803 10800 10796 10793 10791 10787 10782 10779 10775 10771 10769 10766 10761 10757 10756 10752 10747 10742 10741 10742 10740 10735 10728 10722 10716 10710 10706 10701 10697 10694 10689 10684 10678 10674 10669 10665 10661 10656 10650 10646 10642 10638 10634 10629 10623 10618 10614 10610 10604 10601 10597 10595 10598 10601 10597 10593 10597 10599 10594 10593 10597 10600 10603 10606 10610 10616 10623 10629 10636
10844 10841 10838 10837 10834 10832 10829 10826 10823 10820 10817 10814 10810 10808 10804 10800 10796 10792 10788 10784 10781 10778 10775 10772 10767 10764 10764 10761 10754 10749 10747 10745 10740 10735 10734 10735 10734 10729 10722 10714 10708 10701 10696 10691 10686 10682 10678 10674 10669 10665 10659 10655 10651 10647 10641 10637 10633 10628 10624 10619 10612 10608 10605 10600 10594 10591 10588 10585 10587 10592 10591 10585 10586 10589 10586 10585 10588 10591 10594 10598 10603 10609 10615 10621 10628
10838 10833 10829 10827 10825 10822 10820 10817 10814 10811 10809 10806 10802 10798 10796 10792 10788 10784 10780 10776 10773 10770 10768 10764 10760 10758 10757 10752 10746 10741 10738 10735 10731 10727 10725 10723 10720 10716 10710 10703 10697 10690 10684 10679 10675 10670 10666 10662 10658 10655 10650 10645 10641 10637 10632 10628 10623 10619 10614 10608 10602 10599 10595 10590 10586 10582 10579 10575 10577 10584 10585 10577 10574 10579 10578 10576 10580 10584 10586 10590 10596 10602 10608 10614 10621
10830 10827 10822 10819 10817 10814 10811 10809 10806 10803 10800 10798 10794 10789 10787 10784 10780 10776 10772 10768 10765 10762 10760 10757 10753 10751 10748 10742 10737 10734 10730 10726 10722 10718 10715 10711 10707 10703 10698 10692 10686 10680 10673 10669 10665 10661 10656 10650 10646 10643 10639 10635 10631 10626 10622 10617 10614 10609 10604 10598 10592 10589 10585 10580 10577 10575 10570 10566 10567 10576 10578 10568 10564 10569 10571 10569 10573 10577 10579 10584 10591 10596 10602 10608 10614
10822 10819 10816 10813 10810 10807 10804 10801 10798 10795 10792 10790 10786 10780 10778 10775 10771 10767 10763 10759 10757 10754 10751 10749 10747 10744 10738 10732 10729 10726 10721 10717 10713 10710 10706 10701 10696 10692 10687 10681 10676 10670 10664 10660 10657 10653 10648 10643 10638 10632 10628 10623 10618 10614 10609 10605 10602 10598 10594 10588 10584 10581 10577 10571 10568 10567 10563 10557 10560 10569 10569 10558 10555 10561 10564 10564 10567 10570 10572 10579 10584 10589 10595 10600 10605
10814 10811 10809 10806 10803 10801 10798 10794 10791 10787 10784 10783 10778 10772 10769 10767 10763 10759 10755 10751 10749 10746 10743 10743 10743 10738 10730 10724 10721 10717 10711 10707 10704 10700 10695 10690 10685 10680 10675 10670 10666 10660 10655 10651 10648 10643 10639 10635 10630 10624 10618 10612 10607 10602 10597 10592 10588 10585 10582 10577 10572 10570 10568 10563 10560 10559 10554 10549 10553 10561 10559 10549 10547 10554 10558 10560 10562 10562 10564 10571 10576 10580 10587 10593 10598